Location: Platte
(43.3870°N, 98.8440°W)
Time: 21:30:57
(UTC-05:00)

Daily predictions for brighter satellites

Satellite Brightness Start Highest point End
(mag) Time Altitude Azimuth Time Altitude Azimuth Time Altitude Azimuth
CENTAUR R/B 3.2 21:26:51 10° NW 21:34:42 88° NE 21:43:02 10° SE
SL-27 R/B 3.3 21:35:32 10° N 21:38:59 36° ENE 21:42:20 10° SE
Cosmos 1825 4.1 21:38:47 10° ESE 21:40:50 14° E 21:42:55 10° NE
Cosmos 1844 Rocket 3.3 21:38:40 10° S 21:43:47 36° ESE 21:48:53 10° NE
H-2A R/B 2.3 21:42:19 10° SSE 21:46:33 54° ENE 21:50:43 10° N
NOSS 2-2 (D) 3.7 21:43:31 10° SSW 21:47:31 53° ESE 21:52:08 10° NE
Meteor 2-3 Rocket 4.0 21:42:09 10° SSW 21:47:46 75° W 21:53:23 10° N
Cosmos 2074 Rocket 4.0 21:42:19 10° S 21:48:34 75° E 21:54:51 10° N
Cosmos 2082 Rocket 4.3 21:47:08 10° N 21:50:08 14° NE 21:53:07 10° ENE
Cosmos 1340 Rocket 3.5 21:49:51 10° SSW 21:53:46 60° WNW 21:57:47 10° N
YAOGAN 6 3.8 21:52:00 11° SE 21:54:51 25° ENE 21:57:48 10° NNE
Cosmos 1408 4.1 21:52:39 10° SE 21:55:15 19° E 21:57:55 10° NE
Meteor 1-27 Rocket 4.2 21:50:14 10° N 21:55:35 44° ENE 22:00:51 10° SSE
Cosmos 2263 Rocket 3.8 21:53:44 10° SW 21:59:03 41° WNW 22:04:24 10° NNE
Cosmos 1782 2.9 21:55:37 10° N 21:59:38 66° E 22:03:38 10° SSE
Cosmos 1939 Rocket 2.8 21:57:34 10° SSE 22:01:26 86° W 22:05:22 10° NNW
Nadezhda 3 Rocket 4.4 21:56:00 10° N 22:02:09 50° ENE 22:08:16 10° SSE
NOSS 2-2 (C) 3.5 21:58:04 10° SSW 22:02:09 75° ESE 22:06:57 10° NE
Cosmos 1624 Rocket 4.0 21:57:57 10° SSW 22:03:13 85° ESE 22:08:34 10° NNE
Envisat 3.0 21:58:08 10° SSE 22:03:13 83° ENE 22:08:20 10° NNW
Okean 2 Rocket 4.5 22:02:50 13° SE 22:05:33 21° E 22:08:51 10° NE
Atlas Centaur 2 3.2 22:07:25 10° SSW 22:08:29 11° S 22:09:15 10° SSE
Cosmos 1238 Rocket 3.4 22:05:57 10° NNE 22:08:41 28° E 22:10:41 16° SE
Cosmos 1242 Rocket 4.4 22:06:25 10° NNE 22:08:54 17° ENE 22:10:42 13° ESE
ERBS 2.8 22:05:43 10° NW 22:09:09 54° SW 22:11:51 15° SSE
PSLV R/B 3.6 22:07:12 15° SE 22:09:21 43° ENE 22:12:11 10° N
H-2A R/B 3.7 22:05:41 10° ESE 22:09:28 20° ENE 22:13:17 10° NNE
Sich 1 Rocket 3.7 22:05:58 10° S 22:10:29 62° E 22:15:02 10° NNE
Cosmos 1606 2.9 22:09:26 10° N 22:13:19 55° E 22:16:29 15° SSE
SPOT 5 3.1 22:08:13 10° SSE 22:13:26 75° ENE 22:18:48 10° N
Cosmos 1674 Rocket 3.6 22:09:38 10° N 22:14:08 84° W 22:18:34 10° S
Meteor 2-10 Rocket 4.4 22:08:45 10° NNW 22:14:27 57° W 22:20:01 10° S
Cosmos 407 Rocket 3.5 22:15:25 10° NNW 22:20:43 86° ENE 22:25:17 14° SSE
NOSS 2-2 (E) 4.0 22:16:59 10° SW 22:21:09 69° NW 22:26:10 10° NNE
Cosmos 2341 Rocket 4.2 22:15:10 10° SSE 22:21:15 52° E 22:27:19 10° NNE
Cosmos 1892 4.2 22:17:57 10° SSW 22:21:34 39° WNW 22:25:13 10° N
Terra 3.5 22:21:17 13° ESE 22:23:58 20° ENE 22:27:24 10° NNE
SPOT 1/Viking Rocket 3.8 22:20:10 16° SE 22:24:14 53° ENE 22:29:19 10° N
Cosmos 1452 Rocket 3.6 22:22:00 10° S 22:27:07 55° ESE 22:32:16 10° NNE
Cosmos 1782 Rocket 4.0 22:24:26 16° SSE 22:27:42 43° E 22:31:58 10° NNE
ERS-1 Rocket 4.3 22:24:35 10° SSW 22:29:16 38° W 22:33:57 10° NNW
PSLV R/B 4.4 22:27:08 10° W 22:30:12 30° SSW 22:31:34 22° SSE
Cosmos 1190 Rocket 4.4 22:27:13 10° NNW 22:32:21 61° WSW 22:36:59 13° S
Coronas F rocket 4.3 22:31:44 10° WSW 22:33:38 17° WNW 22:35:31 10° NNW
Cosmos 1140 Rocket 4.0 22:29:57 10° N 22:34:52 44° ENE 22:37:56 21° SE
Okean 3 3.4 22:35:59 10° N 22:40:17 71° E 22:42:53 23° SSE
BREEZE-M DEB (TANK) 3.2 22:39:32 10° WNW 22:41:24 29° N 22:43:52 10° NE
Cosmos 1975 Rocket 3.1 22:38:13 10° N 22:42:31 62° E 22:44:55 25° SSE
Cosmos 962 Rocket 4.4 22:39:36 10° S 22:45:45 79° E 22:51:59 10° N
SL-8 Rocket 4.3 22:41:38 19° SSE 22:45:58 48° E 22:51:56 10° NNE
CZ-4B R/B 3.3 22:44:53 10° NNE 22:49:54 71° ESE 22:53:56 15° S
SL-8 R/B 3.9 22:47:03 10° WSW 22:51:52 73° NNW 22:56:42 10° ENE
USA 234 3.5 22:45:57 10° ENE 22:52:08 44° SE 22:58:17 10° SSW
Cosmos 2154 Rocket 4.2 22:46:12 10° SSW 22:52:24 73° W 22:58:38 10° N
Cosmos 1908 Rocket 4.1 22:48:38 10° SSW 22:52:57 59° W 22:57:21 10° N
USA 245 3.1 22:56:42 32° S 22:57:56 63° W 23:01:38 10° NNW
Cosmos 1378 Rocket 4.1 22:54:11 10° NNW 22:58:24 55° W 23:01:24 18° SSW
Cosmos 1850 Rocket 4.3 22:54:18 10° NNW 22:59:32 56° ENE 23:02:05 29° SE
SL-08 RB Rocket 3.7 22:57:06 28° SSE 22:59:32 82° ENE 23:04:12 10° N
Cosmos 1184 Rocket 2.8 22:58:00 28° SSW 22:59:39 81° W 23:03:00 10° N
Cosmos 676 Rocket 4.5 22:57:13 10° NNW 23:02:18 55° WSW 23:05:40 21° S
ARGOS 3.2 23:01:22 23° S 23:04:49 78° WSW 23:10:12 10° NNW
ATLAS 5 CENTAUR R/B 3.8 23:00:36 10° WNW 23:05:46 29° WSW 23:10:26 13° SSW
CZ-4 R/B 3.7 23:01:56 10° NNE 23:06:40 77° ESE 23:09:28 24° S
Cosmos 1862 4.4 23:04:41 10° SSW 23:08:34 44° WNW 23:12:30 10° N
Intercosmos 25 3.0 23:06:57 31° S 23:08:36 89° E 23:11:48 10° N
Cosmos 1954 Rocket 4.3 23:04:07 10° NNW 23:09:15 62° WSW 23:12:09 26° S
Cosmos 1174 4.1 23:06:12 10° NW 23:09:15 37° WSW 23:09:48 33° SW
Cosmos 2151 Rocket 4.0 23:09:29 37° SE 23:10:39 45° E 23:14:59 10° NNE
Cosmos 1295 Rocket 4.5 23:05:34 16° S 23:10:50 89° ESE 23:17:09 10° N
Elektron 3 4.1 23:11:36 10° NW 23:14:31 67° SW 23:15:21 47° SSE
Cosmos 1825 3.5 23:12:51 12° SW 23:16:06 39° WNW 23:19:43 10° N
Cosmos 2278 Rocket 2.2 23:10:52 10° SSW 23:16:33 83° WNW 23:22:17 10° NNE
COSMOS 2487 3.1 23:14:23 10° NNW 23:17:53 49° WSW 23:18:52 37° SSW
Cosmos 1741 Rocket 3.9 23:12:51 10° NNW 23:18:06 77° ENE 23:20:10 37° SSE
Cosmos 2084 3.1 23:14:52 10° SW 23:18:43 83° NW 23:22:35 10° NE
Cosmos 1844 4.5 23:14:07 10° SW 23:19:44 54° WNW 23:25:27 10° NNE
Cosmos 1833 Rocket 3.3 23:14:56 10° NNW 23:20:19 45° ENE 23:22:38 30° ESE
Cosmos 2366 rocket 4.0 23:21:19 29° S 23:24:37 70° E 23:30:55 10° NNE
Cosmos 1844 Rocket 4.2 23:22:29 10° WSW 23:27:39 36° NW 23:32:49 10° N
Cosmos 1812 3.5 23:24:10 10° N 23:27:46 36° ENE 23:27:53 36° E
CZ-4C R/B 3.3 23:27:38 50° SSW 23:28:31 72° WSW 23:32:33 10° NNW
APEX 3.3 23:30:41 50° S 23:31:40 78° ESE 23:36:37 10° NNE
Cosmos 2082 Rocket 2.2 23:29:33 10° NNW 23:35:17 73° ENE 23:37:16 42° SE
USA 229 DEB 3.9 23:29:08 10° NNW 23:36:12 67° NE 23:39:42 32° ESE
USA 229 3.9 23:29:13 10° NNW 23:36:18 66° NE 23:39:49 32° ESE
Okean 1 Rocket 3.9 23:42:15 35° E 23:42:15 35° E 23:46:13 10° NNE
Okean 2 Rocket 4.5 23:40:10 15° SW 23:43:24 35° WNW 23:47:28 10° N
Cosmos 1242 Rocket 4.0 23:40:48 10° NNW 23:44:01 30° W 23:44:55 26° WSW
Cosmos 1300 Rocket 4.0 23:45:04 43° E 23:45:04 43° E 23:49:15 10° NNE
Landsat 7 4.4 23:43:54 34° SSW 23:45:36 49° W 23:50:15 10° NNW
Cosmos 2218 Rocket 4.2 23:43:58 24° SSW 23:48:04 70° W 23:54:29 10° N
Cosmos 2297 3.6 23:44:49 27° SSW 23:48:06 89° WNW 23:53:52 10° NNE
H-2A R/B 2.4 23:46:19 36° SSW 23:48:25 61° W 23:53:43 10° NNW
AVUM R/B 4.4 23:49:49 10° NNW 23:52:52 40° NE 23:52:52 40° NE
